"2009-09-12 00:00:00",1232928,3.833,45.89,6.255,0.282,16.84,107.065,17.36,18.37,32.77,0,110.8,13.24,18.17,7.9
"2009-09-12 00:00:30",1232929,3.677,31,7.037,0.4,16.86,107.0563,17.34,18.37,32.66,0,110.8,13.24,18.15,353.0
"2009-09-12 00:01:00",1232930,3.752,26.77,3.001,0.546,16.85,107.056,17.34,18.36,32.63,0,110.8,13.24,18.15,348.8
"2009-09-12 00:01:30",1232931,3.205,36.82,3.879,0.339,16.77,107.056,17.34,18.35,32.74,0,110.8,13.24,18.15,358.8
"2009-09-12 00:02:00",1232932,3.912,39.28,3.385,0.394,16.86,107.056,17.34,18.34,32.69,0,110.8,13.24,18.15,1.3
"2009-09-12 00:02:30",1232933,3.111,29.54,4.565,0.534,16.89,107.0558,17.34,18.33,32.68,0,110.7,13.24,18.15,351.5
"2009-09-12 00:03:00",1232934,2.706,21.92,4.053,0.288,16.88,107.051,17.33,18.33,32.7,0,110.7,13.24,18.14,343.9
"2009-09-12 00:03:30",1232935,2.423,24.21,4.902,0.395,16.9,107.0437,17.31,18.31,32.74,0,110.7,13.24,18.12,346.2
"2009-09-12 00:04:00",1232936,2.745,29.97,7.541,0.518,16.83,107.0293,17.27,18.32,32.74,0,110.7,13.24,18.08,352.0
"2009-09-12 00:04:30",1232937,3.671,42.87,4.373,0.654,16.74,107.0228,17.25,18.31,32.64,0,110.7,13.24,18.07,4.9
"2009-09-12 00:05:00",1232938,2.94,36.85,12.28,0.298,16.78,107.0223,17.25,18.3,32.68,0,110.7,13.24,18.06,358.9
"2009-09-12 00:05:30",1232939,2.912,26.35,4.81,0.189,16.78,107.0223,17.25,18.29,32.44,0,110.7,13.25,18.06,348.4
"2009-09-12 00:06:00",1232940,3.488,33.81,4.473,0.511,16.64,107.0223,17.25,18.3,32.37,0,110.7,13.25,18.06,355.8
"2009-09-12 00:06:30",1232941,4.61,37.68,1.977,0.271,16.55,107.0229,17.25,18.29,32.73,0,110.7,13.25,18.07,359.7
"2009-09-12 00:07:00",1232942,3.861,33.64,3.704,0.432,16.58,107.0235,17.26,18.3,32.82,0,110.7,13.25,18.07,355.6
"2009-09-12 00:07:30",1232943,3.808,38.07,4.595,0.256,16.55,107.0232,17.25,18.29,32.9,0,110.7,13.25,18.07,0.1
"2009-09-12 00:08:00",1232944,4.082,33.26,4.006,0.239,16.49,107.025,17.26,18.29,32.92,0,110.7,13.25,18.07,355.3
"2009-09-12 00:08:30",1232945,4.343,29.63,1.921,0.199,16.47,107.0271,17.26,18.3,32.84,0,110.7,13.25,18.08,351.6
"2009-09-12 00:09:00",1232946,4.436,23.82,2.195,0.317,16.42,107.0259,17.26,18.3,32.74,0,110.7,13.24,18.07,345.8
"2009-09-12 00:09:30",1232947,3.955,22.57,3.14,0.349,16.39,107.028,17.27,18.31,32.73,0,110.7,13.24,18.08,344.6
"2009-09-12 00:10:00",1232948,3.927,26.88,2.469,0.364,16.48,107.0277,17.27,18.31,32.77,0,110.7,13.24,18.08,348.9
"2009-09-12 00:10:30",1232949,3.688,29.31,3.24,0.378,16.58,107.0307,17.27,18.31,32.8,0,110.7,13.24,18.09,351.3
"2009-09-12 00:11:00",1232950,3.703,42.44,2.917,0.435,16.55,107.0333,17.28,18.31,32.85,0,110.7,13.24,18.09,4.4
"2009-09-12 00:11:30",1232951,3.303,32.46,5.691,0.203,16.5,107.0401,17.3,18.31,32.88,0,110.7,13.24,18.11,354.5
"2009-09-12 00:12:00",1232952,3.483,23.48,3.071,0.413,16.5,107.0457,17.31,18.33,32.85,0,110.7,13.24,18.12,345.5
"2009-09-12 00:12:30",1232953,4.133,26.18,7.39,0.159,16.44,107.0592,17.35,18.32,32.75,0,110.7,13.24,18.16,348.2
"2009-09-12 00:13:00",1232954,3.742,32.93,1.56,0.252,16.48,107.069,17.37,18.34,32.88,0,110.7,13.24,18.18,354.9
"2009-09-12 00:13:30",1232955,3.632,36.17,2.056,0.254,16.56,107.0773,17.39,18.34,32.91,0,110.7,13.24,18.21,358.2
"2009-09-12 00:14:00",1232956,3.994,31.36,5.268,0.271,16.54,107.0826,17.41,18.36,32.88,0,110.7,13.24,18.22,353.4
"2009-09-12 00:14:30",1232957,3.537,28.16,6.513,0.37,16.58,107.0832,17.41,18.36,32.77,0,110.7,13.25,18.22,350.2
"2009-09-12 00:15:00",1232958,3.595,29.5,6.852,0.304,16.62,107.0859,17.42,18.37,32.68,0,110.7,13.25,18.23,351.5
"2009-09-12 00:15:30",1232959,3.741,38.46,8.52,0.423,16.71,107.0874,17.42,18.39,32.66,0,110.7,13.25,18.23,0.5
"2009-09-12 00:16:00",1232960,4.454,35.39,2.38,0.396,16.71,107.0907,17.43,18.4,32.65,0,110.7,13.25,18.24,357.4
"2009-09-12 00:16:30",1232961,4.33,39.96,3.683,0.455,16.71,107.0913,17.43,18.39,32.66,0,110.7,13.25,18.24,2.0
"2009-09-12 00:17:00",1232962,4.274,40.64,4.126,0.394,16.77,107.0916,17.43,18.4,32.59,0,110.7,13.26,18.24,2.6
"2009-09-12 00:17:30",1232963,4.737,44.18,2.728,0.242,16.77,107.0922,17.43,18.41,32.68,0,110.7,13.26,18.24,6.2
"2009-09-12 00:18:00",1232964,4.297,43.25,2.034,0.204,16.84,107.0922,17.43,18.4,32.66,0,110.7,13.26,18.24,5.2
"2009-09-12 00:18:30",1232965,4.178,41.24,3.167,0.162,16.76,107.0922,17.43,18.4,32.63,0,110.7,13.26,18.24,3.2
"2009-09-12 00:19:00",1232966,3.627,37.6,2.417,0.413,16.79,107.0922,17.43,18.39,32.61,0,110.7,13.26,18.24,359.6
"2009-09-12 00:19:30",1232967,4.142,42.48,3.592,0.232,16.79,107.0897,17.43,18.4,32.62,0,110.7,13.26,18.24,4.5
"2009-09-12 00:20:00",1232968,3.077,29.26,2.407,0.438,16.85,107.0846,17.41,18.39,32.58,0,110.7,13.26,18.22,351.3
"2009-09-12 00:20:30",1232969,2.414,21.55,6.077,0.414,16.83,107.0742,17.39,18.39,32.57,0,110.7,13.26,18.20,343.5
"2009-09-12 00:21:00",1232970,2.828,23.78,4.457,0.245,16.82,107.068,17.37,18.38,32.57,0,110.7,13.26,18.18,345.8
"2009-09-12 00:21:30",1232971,2.753,31.07,3.548,0.367,16.84,107.0612,17.35,18.39,32.57,0,110.7,13.26,18.16,353.1
"2009-09-12 00:22:00",1232972,3.234,36.42,4.662,0.637,16.83,107.0587,17.35,18.38,32.62,0,110.7,13.26,18.16,358.4
"2009-09-12 00:22:30",1232973,3.508,37.33,4.734,0.453,16.9,107.0584,17.34,18.39,32.73,0,110.7,13.26,18.16,359.3
"2009-09-12 00:23:00",1232974,3.665,31.78,4.781,0.305,16.93,107.0584,17.34,18.37,32.91,0,110.7,13.26,18.16,353.8
"2009-09-12 00:23:30",1232975,3.625,30.06,6.704,0.292,16.87,107.0584,17.34,18.37,32.9,0,110.7,13.26,18.16,352.1
"2009-09-12 00:24:00",1232976,3.415,31.88,5.663,0.348,16.9,107.0584,17.34,18.36,32.88,0,110.7,13.26,18.16,353.9
"2009-09-12 00:24:30",1232977,2.703,31.58,7.513,0.412,16.91,107.0584,17.34,18.35,33.08,0,110.7,13.26,18.16,353.6
"2009-09-12 00:25:00",1232978,2.52,34.74,3.991,0.528,16.88,107.0536,17.33,18.36,33.07,0,110.7,13.26,18.15,356.7
"2009-09-12 00:25:30",1232979,2.838,33.38,3.632,0.565,16.88,107.0441,17.31,18.34,33.02,0,110.7,13.26,18.12,355.4
"2009-09-12 00:26:00",1232980,2.921,36.94,6.807,0.213,16.8,107.0413,17.3,18.33,32.92,0,110.7,13.26,18.11,358.9
"2009-09-12 00:26:30",1232981,3.004,38.13,2.388,0.29,16.87,107.0294,17.27,18.32,32.93,0,110.7,13.26,18.08,0.1
"2009-09-12 00:27:00",1232982,3.394,30.76,4.762,0.179,16.92,107.0247,17.26,18.31,32.99,0,110.7,13.26,18.07,352.8
"2009-09-12 00:27:30",1232983,2.55,29.45,2.511,0.367,16.88,107.0247,17.26,18.31,32.99,0,110.7,13.25,18.07,351.5
"2009-09-12 00:28:00",1232984,2.272,20.77,5.114,0.449,16.93,107.0247,17.26,18.3,32.99,0,110.7,13.25,18.07,342.8
"2009-09-12 00:28:30",1232985,2.148,22.56,7.904,0.342,16.92,107.0247,17.26,18.29,33.03,0,110.7,13.25,18.07,344.6
"2009-09-12 00:29:00",1232986,2.859,26.73,6.693,0.22,16.92,107.0247,17.26,18.29,33.1,0,110.7,13.25,18.07,348.7
"2009-09-12 00:29:30",1232987,2.325,41.26,5.257,0.214,16.91,107.0249,17.26,18.29,33.14,0,110.7,13.26,18.07,3.3
"2009-09-12 00:30:00",1232988,2.144,32.37,5.093,0.182,16.91,107.0227,17.25,18.27,33.14,0,110.7,13.26,18.07,354.4
"2009-09-12 00:30:30",1232989,2.04,35.1,6.767,0.292,17,107.014,17.23,18.26,33.21,0,110.7,13.26,18.04,357.1
"2009-09-12 00:31:00",1232990,2.522,36.42,9.79,0.601,16.93,107.0006,17.2,18.27,33.28,0,110.7,13.26,18.01,358.4
"2009-09-12 00:31:30",1232991,2.916,50.9,2.727,0.22,16.93,106.9983,17.19,18.26,33.22,0,110.7,13.26,18.00,12.9
"2009-09-12 00:32:00",1232992,3.049,43.15,4.228,0.163,16.91,106.9969,17.19,18.25,33.21,0,110.7,13.26,18.00,5.2
"2009-09-12 00:32:30",1232993,2.563,39.07,2.269,0.168,16.94,107.002,17.2,18.23,33.17,0,110.7,13.26,18.01,1.1
"2009-09-12 00:33:00",1232994,2.408,33.55,5.238,0.32,16.94,107.0032,17.2,18.24,33.18,0,110.7,13.26,18.02,355.5
"2009-09-12 00:33:30",1232995,2.651,38.07,4.254,0.329,16.97,107.005,17.21,18.25,33.2,0,110.7,13.26,18.02,0.1
"2009-09-12 00:34:00",1232996,3.621,42.67,3.935,0.245,17.01,107.0056,17.21,18.23,33.22,0,110.7,13.27,18.02,4.7
"2009-09-12 00:34:30",1232997,3.042,34.38,3.926,0.673,17,107.0105,17.22,18.23,33.18,0,110.7,13.27,18.03,356.4
"2009-09-12 00:35:00",1232998,3.793,41.52,2.453,0.325,17.03,107.0121,17.23,18.22,33.23,0,110.7,13.27,18.04,3.5
"2009-09-12 00:35:30",1232999,4.014,51.25,3.095,0.388,17.06,107.0041,17.21,18.2,33.28,0,110.7,13.27,18.02,13.2
"2009-09-12 00:36:00",1233000,3.562,49.53,7.686,0.368,17.04,106.9957,17.18,18.21,33.28,0,110.7,13.27,18.00,11.5
"2009-09-12 00:36:30",1233001,3.857,44.22,3.613,0.287,16.96,106.9878,17.16,18.18,33.25,0,110.7,13.27,17.98,6.2
"2009-09-12 00:37:00",1233002,3.139,34.19,2.962,0.409,17.02,106.9899,17.17,18.19,33.23,0,110.7,13.27,17.98,356.2
"2009-09-12 00:37:30",1233003,3.102,40.8,6.434,0.33,16.95,106.9902,17.17,18.18,33.25,0,110.7,13.27,17.98,2.8
"2009-09-12 00:38:00",1233004,2.72,35.72,6.087,0.233,16.96,106.9929,17.18,18.16,33.22,0,110.7,13.27,17.99,357.7
"2009-09-12 00:38:30",1233005,3.466,35.67,3.319,0.326,16.97,106.9927,17.18,18.16,33.15,0,110.7,13.27,17.99,357.7
"2009-09-12 00:39:00",1233006,2.97,35.62,3.489,0.365,16.95,106.9868,17.16,18.15,33.25,0,110.6,13.27,17.97,357.6
"2009-09-12 00:39:30",1233007,2.634,34.2,2.799,0.239,16.95,106.9755,17.13,18.15,33.26,0,110.6,13.27,17.94,356.2
"2009-09-12 00:40:00",1233008,2.838,31.4,4.192,0.306,16.98,106.9611,17.1,18.15,33.21,0,110.6,13.27,17.91,353.4
"2009-09-12 00:40:30",1233009,2.18,33.63,2.417,0.336,16.97,106.9595,17.09,18.13,33.33,0,110.6,13.27,17.90,355.6
"2009-09-12 00:41:00",1233010,1.991,30.19,3.297,0.259,16.96,106.9595,17.09,18.12,33.37,0,110.6,13.27,17.90,352.2
"2009-09-12 00:41:30",1233011,2.351,36.62,4.899,0.253,16.93,106.9595,17.09,18.11,33.35,0,110.6,13.27,17.90,358.6
"2009-09-12 00:42:00",1233012,2.591,37.84,2.791,0.302,16.97,106.9595,17.09,18.1,33.38,0,110.6,13.27,17.90,359.8
"2009-09-12 00:42:30",1233013,2.875,44.46,4.05,0.331,16.99,106.9586,17.09,18.1,33.41,0,110.6,13.27,17.90,6.5
"2009-09-12 00:43:00",1233014,3.339,39.07,4.647,0.301,16.91,106.9457,17.06,18.09,33.41,0,110.6,13.27,17.87,1.1
"2009-09-12 00:43:30",1233015,3.289,39.35,2.814,0.229,16.97,106.9369,17.03,18.08,33.37,0,110.6,13.27,17.84,1.3
"2009-09-12 00:44:00",1233016,3.1,39.05,7.341,0.22,16.94,106.9282,17.01,18.07,33.37,0,110.6,13.27,17.82,1.0
"2009-09-12 00:44:30",1233017,3.19,45.64,1.835,0.142,16.86,106.9257,17,18.06,33.45,0,110.6,13.27,17.82,7.6
"2009-09-12 00:45:00",1233018,3.39,47.3,3.276,0.15,16.98,106.9257,17,18.05,33.42,0,110.6,13.27,17.82,9.3
"2009-09-12 00:45:30",1233019,3.195,42.92,2.164,0.142,17,106.9257,17,18.04,33.44,0,110.6,13.27,17.82,4.9
"2009-09-12 00:46:00",1233020,3.279,48.99,4.16,0.106,17.01,106.9257,17,18.03,33.44,0,110.6,13.27,17.82,11.0
"2009-09-12 00:46:30",1233021,4.01,48.44,3.998,0.342,17,106.9248,17,18.03,33.51,0,110.6,13.27,17.81,10.4
"2009-09-12 00:47:00",1233022,4.117,44.97,2.156,0.298,16.96,106.9108,16.97,18.03,33.5,0,110.6,13.27,17.78,7.0
"2009-09-12 00:47:30",1233023,4.017,44.67,1.603,0.125,16.93,106.8998,16.94,18.01,33.5,0,110.6,13.27,17.75,6.7
"2009-09-12 00:48:00",1233024,3.745,47,4.417,0.294,16.97,106.8924,16.92,18,33.5,0,110.6,13.27,17.73,9.0
"2009-09-12 00:48:30",1233025,3.299,51.6,2.674,0.197,16.98,106.8919,16.92,17.99,33.56,0,110.6,13.27,17.73,13.6
"2009-09-12 00:49:00",1233026,2.807,45.76,2.325,0.261,16.95,106.8919,16.92,17.98,33.55,0,110.6,13.27,17.73,7.8
"2009-09-12 00:49:30",1233027,3.346,42.7,3.056,0.093,16.97,106.8919,16.92,17.96,33.42,0,110.6,13.28,17.73,4.7
"2009-09-12 00:50:00",1233028,3.08,40.28,2.168,0.146,17.08,106.8919,16.92,17.96,33.36,0,110.6,13.28,17.73,2.3
"2009-09-12 00:50:30",1233029,3.717,40.2,2.504,0.146,16.97,106.8902,16.91,17.95,33.38,0,110.6,13.28,17.72,2.2
"2009-09-12 00:51:00",1233030,3.994,42.32,2.597,0.245,17.03,106.8834,16.9,17.94,33.36,0,110.6,13.28,17.71,4.3
"2009-09-12 00:51:30",1233031,4.037,44.77,1.102,0.07,16.92,106.8795,16.89,17.94,33.34,0,110.6,13.28,17.70,6.8
"2009-09-12 00:52:00",1233032,3.719,46.3,2.522,0.156,17.01,106.864,16.85,17.93,33.36,0,110.6,13.28,17.66,8.3
"2009-09-12 00:52:30",1233033,3.421,50.14,2.022,0.086,16.98,106.8581,16.83,17.92,33.49,0,110.6,13.28,17.64,12.1
"2009-09-12 00:53:00",1233034,3.959,47.6,1.623,0.196,16.95,106.8584,16.83,17.9,33.44,0,110.6,13.28,17.64,9.6
"2009-09-12 00:53:30",1233035,4.025,44.01,2.06,0.098,17.02,106.8584,16.83,17.9,33.28,0,110.6,13.28,17.64,6.0
"2009-09-12 00:54:00",1233036,4.002,41.37,1.293,0.062,17.1,106.859,16.83,17.89,33.18,0,110.6,13.28,17.64,3.4
"2009-09-12 00:54:30",1233037,3.964,44.39,2.1,0.126,17,106.8602,16.84,17.87,33.33,0,110.6,13.28,17.65,6.4
"2009-09-12 00:55:00",1233038,3.57,52.15,4.013,0.23,16.99,106.8609,16.84,17.88,33.29,0,110.6,13.28,17.65,14.2
"2009-09-12 00:55:30",1233039,3.423,46.58,1.678,0.079,17.02,106.8579,16.83,17.87,33.28,0,110.6,13.28,17.64,8.6
"2009-09-12 00:56:00",1233040,3.657,43.08,2.563,0.102,16.97,106.8535,16.82,17.86,33.34,0,110.6,13.28,17.63,5.1
"2009-09-12 00:56:30",1233041,3.829,45.78,3.344,0.149,16.96,106.8391,16.78,17.85,33.36,0,110.6,13.28,17.59,7.8
"2009-09-12 00:57:00",1233042,3.482,51.21,1.465,0.137,16.95,106.8384,16.78,17.85,33.35,0,110.6,13.28,17.59,13.2
"2009-09-12 00:57:30",1233043,3.719,47.63,1.906,0.066,16.99,106.8403,16.79,17.85,33.42,0,110.6,13.28,17.60,9.6
"2009-09-12 00:58:00",1233044,4.112,46.17,2.735,0.077,16.92,106.8454,16.8,17.83,33.43,0,110.6,13.28,17.61,8.2
"2009-09-12 00:58:30",1233045,3.793,48.28,1.074,0.129,17,106.8484,16.81,17.83,33.45,0,110.6,13.28,17.62,10.3
"2009-09-12 00:59:00",1233046,3.777,51.33,2.073,0.17,17.03,106.8493,16.81,17.82,33.48,0,110.6,13.28,17.62,13.3
"2009-09-12 00:59:30",1233047,3.764,47.5,1.406,0.203,16.96,106.8514,16.81,17.82,33.45,0,110.6,13.28,17.63,9.5
"2009-09-12 01:00:00",1233048,4.011,50.59,2.439,0.082,17.03,106.8532,16.82,17.82,33.36,0,110.6,13.28,17.63,12.6
"2009-09-12 01:00:30",1233049,4.063,43.86,2.817,0.134,16.99,106.855,16.82,17.81,33.34,0,110.6,13.28,17.63,5.9
"2009-09-12 01:01:00",1233050,4.097,43.85,2.105,0.108,17.03,106.8574,16.83,17.81,33.17,0,110.6,13.28,17.64,5.8
"2009-09-12 01:01:30",1233051,4.151,42.38,1.097,0.124,17.04,106.858,16.83,17.79,33,0,110.6,13.28,17.64,4.4
"2009-09-12 01:02:00",1233052,4.492,43.75,1.05,0.148,16.95,106.8581,16.83,17.79,32.71,0,110.6,13.28,17.64,5.8
"2009-09-12 01:02:30",1233053,4.396,43.85,0.545,0.081,16.89,106.8514,16.81,17.77,32.69,0,110.6,13.28,17.63,5.8
"2009-09-12 01:03:00",1233054,4.133,46.47,1.15,0.126,16.93,106.8387,16.78,17.78,32.78,0,110.6,13.28,17.59,8.5
"2009-09-12 01:03:30",1233055,4.082,47.73,2.234,0.172,16.91,106.83,16.76,17.77,33.12,0,110.6,13.28,17.57,9.7
"2009-09-12 01:04:00",1233056,4.111,46.76,1.496,0.084,16.93,106.8269,16.75,17.77,33.06,0,110.6,13.28,17.56,8.8
"2009-09-12 01:04:30",1233057,4.129,50.19,2.151,0.172,17.01,106.8266,16.75,17.76,32.91,0,110.6,13.28,17.56,12.2
"2009-09-12 01:05:00",1233058,4.489,50.82,2.759,0.101,16.97,106.8266,16.75,17.76,32.8,0,110.6,13.29,17.56,12.8
"2009-09-12 01:05:30",1233059,4.504,50.13,3.065,0.105,16.93,106.8266,16.75,17.76,32.71,0,110.6,13.29,17.56,12.1
"2009-09-12 01:06:00",1233060,4.473,48.31,1.589,0.097,16.98,106.8266,16.75,17.75,32.7,0,110.6,13.29,17.56,10.3
"2009-09-12 01:06:30",1233061,4.227,49.21,4.11,0.144,16.98,106.8266,16.75,17.75,32.75,0,110.6,13.29,17.56,11.2
"2009-09-12 01:07:00",1233062,4.29,48.5,3.959,0.199,16.98,106.8266,16.75,17.76,32.8,0,110.6,13.29,17.56,10.5
"2009-09-12 01:07:30",1233063,4.557,52.17,1.964,0.2,16.96,106.8266,16.75,17.74,32.85,0,110.6,13.29,17.56,14.2
"2009-09-12 01:08:00",1233064,4.252,51.13,2.011,0.122,16.94,106.8266,16.75,17.74,32.89,0,110.6,13.29,17.56,13.1
"2009-09-12 01:08:30",1233065,4.018,53.78,2.245,0.21,17.01,106.8266,16.75,17.75,32.91,0,110.6,13.29,17.56,15.8
"2009-09-12 01:09:00",1233066,4.094,48.69,0.885,0.192,16.96,106.8266,16.75,17.74,32.92,0,110.6,13.29,17.56,10.7
"2009-09-12 01:09:30",1233067,4.076,49.7,2.247,0.122,17.07,106.8266,16.75,17.73,32.91,0,110.6,13.29,17.56,11.7
"2009-09-12 01:10:00",1233068,4.033,51.67,1.901,0.119,17.09,106.8266,16.75,17.73,32.92,0,110.6,13.29,17.56,13.7
"2009-09-12 01:10:30",1233069,4.308,49.92,1.294,0.086,16.94,106.8263,16.75,17.72,32.97,0,110.6,13.29,17.56,11.9
"2009-09-12 01:11:00",1233070,3.967,52.76,1.223,0.227,16.98,106.8249,16.75,17.74,33.18,0,110.6,13.29,17.56,14.8
"2009-09-12 01:11:30",1233071,3.841,51.66,1.267,0.07,17.05,106.8232,16.74,17.72,33.31,0,110.6,13.29,17.55,13.7
"2009-09-12 01:12:00",1233072,3.654,52.14,1.214,0.181,16.92,106.8218,16.74,17.72,33.42,0,110.6,13.29,17.55,14.1
"2009-09-12 01:12:30",1233073,3.595,50.17,1.362,0.235,16.97,106.821,16.74,17.73,33.22,0,110.6,13.29,17.55,12.2
"2009-09-12 01:13:00",1233074,3.74,49.59,2.133,0.113,16.89,106.8182,16.73,17.72,33.07,0,110.6,13.29,17.54,11.6
"2009-09-12 01:13:30",1233075,4.022,49.44,0.965,0.092,16.94,106.8151,16.72,17.72,33.15,0,110.6,13.29,17.53,11.4
"2009-09-12 01:14:00",1233076,3.979,49.07,1.722,0.069,16.96,106.8125,16.71,17.73,32.92,0,110.6,13.29,17.53,11.1
"2009-09-12 01:14:30",1233077,3.867,48.57,1.55,0.112,16.89,106.8089,16.71,17.72,32.96,0,110.6,13.3,17.52,10.6
"2009-09-12 01:15:00",1233078,3.98,52.52,1.189,0.118,17.04,106.8072,16.7,17.73,33.03,0,110.6,13.3,17.51,14.5
"2009-09-12 01:15:30",1233079,3.782,51.12,1.717,0.18,17.08,106.803,16.69,17.72,33.05,0,110.6,13.29,17.50,13.1
"2009-09-12 01:16:00",1233080,3.737,51.54,1.568,0.062,16.91,106.7985,16.68,17.72,33.17,0,110.6,13.3,17.49,13.5
"2009-09-12 01:16:30",1233081,3.723,51.23,1.353,0.099,16.93,106.7954,16.67,17.72,33.16,0,110.6,13.29,17.48,13.2
"2009-09-12 01:17:00",1233082,3.625,51.94,1.059,0.095,16.87,106.7945,16.67,17.71,33.13,0,110.6,13.29,17.48,13.9
"2009-09-12 01:17:30",1233083,3.79,51.4,1.423,0.104,17,106.7937,16.67,17.71,33.05,0,110.6,13.29,17.48,13.4
"2009-09-12 01:18:00",1233084,3.878,52.85,2.267,0.106,17.01,106.7928,16.66,17.71,33.07,0,110.6,13.29,17.47,14.8
"2009-09-12 01:18:30",1233085,3.611,49.66,1.643,0.111,16.97,106.7937,16.67,17.73,33.03,0,110.6,13.29,17.48,11.7
"2009-09-12 01:19:00",1233086,3.675,53.41,2.091,0.073,16.97,106.7928,16.66,17.71,33.13,0,110.6,13.29,17.47,15.4
"2009-09-12 01:19:30",1233087,3.596,52.92,1.164,0.067,16.83,106.7928,16.66,17.71,33.03,0,110.6,13.29,17.47,14.9
"2009-09-12 01:20:00",1233088,3.286,57.68,1.952,0.099,16.91,106.7931,16.66,17.71,33,0,110.6,13.29,17.48,19.7
"2009-09-12 01:20:30",1233089,3.322,60.18,2.103,0.1,16.96,106.7928,16.66,17.71,33.15,0,110.6,13.29,17.47,22.2
"2009-09-12 01:21:00",1233090,3.25,63.63,4.159,0.095,17.04,106.7928,16.66,17.72,33.19,0,110.6,13.29,17.47,25.6
"2009-09-12 01:21:30",1233091,3.219,65.88,1.049,0.026,17.01,106.7928,16.66,17.73,33.31,0,110.6,13.29,17.47,27.9
"2009-09-12 01:22:00",1233092,3.095,65.15,0.6,0.054,17,106.7928,16.66,17.71,33.38,0,110.6,13.3,17.47,27.2
"2009-09-12 01:22:30",1233093,3.011,64.51,0.823,0.031,17.17,106.7928,16.66,17.71,33.4,0,110.6,13.3,17.47,26.5
"2009-09-12 01:23:00",1233094,2.839,66.88,0.774,0.032,17.14,106.7928,16.66,17.71,33.4,0,110.6,13.3,17.47,28.9
"2009-09-12 01:23:30",1233095,2.796,66.29,0.393,0.034,17.1,106.794,16.67,17.71,33.4,0,110.6,13.3,17.48,28.3
"2009-09-12 01:24:00",1233096,2.745,65.64,0.599,0.042,17.05,106.7964,16.67,17.72,33.4,0,110.6,13.3,17.48,27.6
"2009-09-12 01:24:30",1233097,2.672,64.9,1.023,0.027,16.96,106.7958,16.67,17.73,33.4,0,110.6,13.3,17.48,26.9
"2009-09-12 01:25:00",1233098,2.697,63.26,0.893,0.034,17.03,106.7943,16.67,17.73,33.41,0,110.6,13.3,17.48,25.3
"2009-09-12 01:25:30",1233099,2.627,63.06,0.564,0.047,16.95,106.7952,16.67,17.73,33.41,0,110.6,13.3,17.48,25.1
"2009-09-12 01:26:00",1233100,2.524,62.56,0.583,0.029,16.92,106.798,16.68,17.72,33.39,0,110.6,13.3,17.49,24.6
"2009-09-12 01:26:30",1233101,2.563,60.96,1.325,0.071,16.98,106.7994,16.68,17.73,33.38,0,110.6,13.3,17.49,23.0
"2009-09-12 01:27:00",1233102,2.653,59.89,0.765,0.044,16.99,106.8016,16.69,17.73,33.45,0,110.6,13.3,17.50,21.9
"2009-09-12 01:27:30",1233103,2.749,58.63,0.639,0.021,17.06,106.8019,16.69,17.75,33.49,0,110.6,13.3,17.50,20.6
"2009-09-12 01:28:00",1233104,2.765,59.61,0.841,0.037,17.15,106.8037,16.69,17.74,33.47,0,110.6,13.3,17.50,21.6
"2009-09-12 01:28:30",1233105,2.765,62.44,1.125,0.037,17.09,106.8073,16.7,17.75,33.5,0,110.6,13.3,17.51,24.4
"2009-09-12 01:29:00",1233106,2.64,61.26,1.355,0.096,16.94,106.8082,16.7,17.74,33.48,0,110.6,13.3,17.51,23.3
"2009-09-12 01:29:30",1233107,2.556,61,0.931,0.072,16.92,106.8085,16.7,17.75,33.4,0,110.6,13.3,17.51,23.0
"2009-09-12 01:30:00",1233108,2.694,63.7,1.357,0.078,16.89,106.8106,16.71,17.76,33.33,0,110.6,13.3,17.52,25.7
"2009-09-12 01:30:30",1233109,2.755,63.4,1.299,0.033,16.95,106.8145,16.72,17.76,33.23,0,110.6,13.3,17.53,25.4
"2009-09-12 01:31:00",1233110,2.697,63.56,2.025,0.09,16.91,106.8142,16.72,17.76,33.14,0,110.5,13.3,17.53,25.6
"2009-09-12 01:31:30",1233111,3.045,63.24,2.323,0.139,17.13,106.8124,16.71,17.75,33.16,0,110.6,13.3,17.52,25.2
"2009-09-12 01:32:00",1233112,3.059,68.31,1.107,0.084,16.8,106.8166,16.73,17.74,33.13,0,110.5,13.3,17.54,30.3
"2009-09-12 01:32:30",1233113,3.302,66.08,2.227,0.161,17.03,106.8184,16.73,17.76,33.04,0,110.6,13.3,17.54,28.1
"2009-09-12 01:33:00",1233114,3.199,65.15,2.244,0.075,17.03,106.8166,16.73,17.76,33,0,110.6,13.3,17.54,27.2
"2009-09-12 01:33:30",1233115,3.441,71.11,2.4,0.046,17.04,106.8208,16.74,17.77,33,0,110.6,13.3,17.55,33.1
"2009-09-12 01:34:00",1233116,3.275,73.26,2.951,0.133,17.04,106.8202,16.73,17.75,33.08,0,110.6,13.3,17.54,35.3
"2009-09-12 01:34:30",1233117,3.211,69.49,3.626,0.183,17.01,106.8229,16.74,17.76,33.04,0,110.6,13.3,17.55,31.5
"2009-09-12 01:35:00",1233118,3.667,67.17,3.284,0.176,17.07,106.8253,16.75,17.76,33.27,0,110.6,13.3,17.56,29.2
"2009-09-12 01:35:30",1233119,3.098,82.6,6.775,0.282,17.04,106.8277,16.75,17.76,33.6,0,110.6,13.3,17.56,44.6
"2009-09-12 01:36:00",1233120,2.822,105.6,9.23,0.208,16.99,106.8271,16.75,17.76,33.62,0,110.6,13.3,17.56,67.6
"2009-09-12 01:36:30",1233121,3.539,101.2,3.373,0.159,17.09,106.8277,16.75,17.76,33.46,0,110.6,13.3,17.56,63.2
"2009-09-12 01:37:00",1233122,3.26,102.2,2.8,0.217,17.1,106.8289,16.76,17.75,33.44,0,110.6,13.3,17.57,64.2
"2009-09-12 01:37:30",1233123,2.848,104.4,3.188,0.311,17.05,106.8286,16.76,17.76,33.34,0,110.6,13.3,17.57,66.4
"2009-09-12 01:38:00",1233124,2.81,113.2,2.309,0.187,17.09,106.8286,16.76,17.76,33.55,0,110.6,13.3,17.57,75.2
"2009-09-12 01:38:30",1233125,2.975,102.2,10.89,0.561,17.03,106.8283,16.76,17.75,33.59,0,110.6,13.31,17.57,64.2
"2009-09-12 01:39:00",1233126,3.516,93.6,5.634,0.333,17.06,106.8289,16.76,17.76,33.53,0,110.6,13.31,17.57,55.6
"2009-09-12 01:39:30",1233127,3.235,95,5.794,0.224,17.07,106.8289,16.76,17.75,33.58,0,110.6,13.31,17.57,57.0
"2009-09-12 01:40:00",1233128,3.868,82.5,7.18,0.552,17.12,106.8289,16.76,17.76,33.52,0,110.6,13.31,17.57,44.5
"2009-09-12 01:40:30",1233129,3.829,80.1,3.518,0.271,17.14,106.8289,16.76,17.75,33.53,0,110.6,13.31,17.57,42.1
"2009-09-12 01:41:00",1233130,3.028,76.08,4.932,0.258,17.06,106.8289,16.76,17.74,33.61,0,110.6,13.31,17.57,38.1
"2009-09-12 01:41:30",1233131,2.664,68.31,4.907,0.136,16.97,106.8289,16.76,17.75,33.58,0,110.6,13.31,17.57,30.3
"2009-09-12 01:42:00",1233132,3.203,66.25,1.436,0.15,17.03,106.8289,16.76,17.75,33.44,0,110.6,13.31,17.57,28.2
"2009-09-12 01:42:30",1233133,3.46,71.39,2.108,0.212,17.01,106.8289,16.76,17.75,33.38,0,110.6,13.31,17.57,33.4
"2009-09-12 01:43:00",1233134,3.86,75.78,4.244,0.33,17.05,106.8289,16.76,17.74,33.31,0,110.6,13.31,17.57,37.8
"2009-09-12 01:43:30",1233135,4.489,81.3,5.392,0.286,17.13,106.8289,16.76,17.75,33.56,0,110.6,13.31,17.57,43.3
"2009-09-12 01:44:00",1233136,3.917,103.8,9.1,0.407,17.06,106.8289,16.76,17.75,33.65,0,110.6,13.31,17.57,65.8
"2009-09-12 01:44:30",1233137,3.779,110.6,3.29,0.288,16.94,106.8289,16.76,17.74,33.72,0,110.6,13.31,17.57,72.6
"2009-09-12 01:45:00",1233138,4.195,105.5,3.369,0.149,17.03,106.8289,16.76,17.74,33.83,0,110.6,13.31,17.57,67.5
"2009-09-12 01:45:30",1233139,3.461,104.1,5.033,0.258,16.96,106.8289,16.76,17.75,33.79,0,110.6,13.31,17.57,66.1
"2009-09-12 01:46:00",1233140,3.46,102.8,7.505,0.26,16.94,106.8289,16.76,17.74,33.9,0,110.6,13.31,17.57,64.8
"2009-09-12 01:46:30",1233141,3.667,106.8,2.656,0.139,16.87,106.8289,16.76,17.74,34.16,0,110.6,13.31,17.57,68.8
"2009-09-12 01:47:00",1233142,3.878,92.7,13.03,0.415,16.88,106.8289,16.76,17.74,33.91,0,110.6,13.31,17.57,54.7
"2009-09-12 01:47:30",1233143,3.314,79.53,5.268,0.155,16.96,106.8289,16.76,17.73,33.83,0,110.6,13.31,17.57,41.5